COSMOS 2251 DEB, 34854

Orbit data source: Space-Track

COSMOS 2251 DEB, 34854 is space debris in LEO originally from a launch on Wed, 16 Jun 1993 UTC launched from the Plesetsk Missile And Space Complex (PKMTR). The debris from Iridium 33, an American commercial communications satellite, has been tracked extensively since its accidental collision with the defunct Russian satellite Cosmos 2251 in 2009. This event, occurring at high speed in low Earth orbit (LEO), generated thousands of pieces of space debris, significantly increasing the risk of further collisions. The Iridium 33 debris cloud has impacted space traffic management and orbital debris mitigation strategies, making it a subject of ongoing study in space situational awareness.

Loading next visibility...
Identifier
34854, 1993-036ABY
Orbit
LEO
Country
Flag of CISCIS
Related business
Manufacturer
Unknown
Mission
Spacecraft
Bus & Motor
Unknown
Mass
Unknown
Launch date (UTC)
1993-06-16 (33 years ago)
Launch vehicle
Unknown
Launch site
Plesetsk Missile And Space Complex (PKMTR)
Object type
Payload
Rocket body
Debris
Shape & HBR
Unknown shape, 0.1 m
Radar Cross Section
Small (<0.1 m²)

Expand to show TLE details & history
Last TLE update: 6 days ago

TLE from 6 days ago
0 COSMOS 2251 DEB
1 34854U 93036ABY 26119.08488532  .00003383  00000-0  45776-3 0  9991
2 34854  74.0294 249.0263 0064217 324.9221  34.7732 14.77997423739100
Epoch: 2026-04-29T02:02Z
TLE epoch observation values (Epoch: 2026-04-29T02:02:14.091Z)
Latitude
-0.00003°
Longitude
1.41666°
Altitude
601.405 km
Speed
7.579 km/s
True Right ascension
16h 36m 06s
True Declination
0° 00' 00"
Sunlit
Object was in full shadow at epoch
Visualization orbit readout
Latitude
Unknown
Longitude
Unknown
Altitude
Unknown
Speed
Unknown
Apparent Right ascension
Unknown
Apparent Declination
Unknown
Sunlit
N/A
Visualization observer readout
Local Sidereal Time
22:39:52
Azimuth
Unknown
Elevation
Unknown
Doppler factor
Unknown
Orbital elements
Apogee altitude
678.256 km
Perigee altitude
588.206 km
Semi-major axis
7,011.368 km
Eccentricity
0.00642
Inclination
74.0294°
RAAN
249.0263°
Arg. of periapsis
324.9221°
True anomaly
35.19567°
Mean anomaly
34.7732°
Eccentric anomaly
34.98416°
Mean motion
3.69691 °/min
Orbital period
97.38 mins
BSTAR
0.00045776
Loading maneuver chart data...
Computing Atmospheric mass density...

Documentation

Showing up to 5 results
|